GFSCGP_700_rhum_051.txt.gz
RH
99 98 79 58 83 94 86 96 89 100 93 90 88 81 81 68 76 68 81 77 64 58 57 52 46 48 44 40 39 39 39 38 36 36 39 40 40 37 32 29 26 24 25 25
99 99 87 68 84 82 65 86 86 97 86 85 85 75 66 69 56 55 58 74 68 64 62 61 56 52 51 48 46 43 41 38 36 33 28 28 27 27 28 30 30 30 28 27
98 98 97 80 83 84 72 59 76 69 72 82 85 76 66 65 50 55 54 85 70 66 62 61 58 56 53 53 53 47 40 37 35 33 32 32 31 31 32 31 28 25 23 22
96 97 95 94 83 78 91 78 60 57 72 94 82 84 51 52 49 48 40 75 73 61 60 61 58 54 53 53 54 47 40 38 37 37 36 36 36 34 27 21 17 16 17 16
100 99 98 96 91 75 74 82 75 66 82 85 89 86 64 46 40 32 37 55 70 68 58 50 45 43 42 43 42 39 38 38 39 38 38 35 32 26 21 18 16 15 13 13
98 100 98 90 98 86 71 81 82 77 74 90 79 82 65 53 38 38 35 36 52 80 80 66 46 44 45 43 41 39 38 40 39 37 35 31 26 23 19 15 13 12 12 12
99 99 86 80 96 85 90 90 95 92 90 85 72 75 68 53 51 46 39 37 40 44 58 59 51 45 46 46 46 45 45 44 43 38 30 25 20 16 14 13 12 12 14 16
98 98 78 77 90 83 88 76 69 93 93 79 68 73 49 37 33 35 33 35 32 33 44 38 41 42 43 48 49 47 44 42 39 35 31 24 20 15 12 12 14 15 17 18
98 98 98 89 93 89 86 81 69 66 78 76 62 59 39 30 34 35 32 25 26 26 26 30 27 28 37 45 49 51 46 41 37 30 25 21 17 14 15 17 18 17 17 17
92 97 95 99 89 93 84 77 76 73 83 79 61 52 32 37 40 39 36 32 27 26 23 25 24 24 28 41 48 43 42 39 34 29 24 21 20 20 19 18 18 17 16 17
89 89 98 95 100 86 87 87 85 72 70 73 67 42 39 38 40 38 34 33 30 27 25 21 25 30 36 41 41 44 40 35 32 30 27 26 24 22 21 20 19 19 21 25
81 85 100 100 90 92 88 77 79 72 82 76 76 56 40 40 41 35 42 40 30 32 28 35 46 50 53 46 38 36 33 32 30 29 27 26 27 28 30 29 28 29 30 32
84 88 97 98 99 100 98 87 79 80 72 73 74 61 47 46 41 40 40 44 51 41 44 44 45 44 44 44 40 36 34 35 39 42 42 41 39 38 36 35 33 32 32 31
90 85 79 71 73 74 80 77 84 84 88 82 76 66 53 46 41 43 49 56 55 55 44 48 48 50 48 44 46 54 58 57 55 52 48 44 41 38 36 35 35 34 34 34
92 85 86 82 77 75 73 70 71 77 73 88 64 64 55 48 50 56 66 63 64 61 57 52 45 50 46 57 68 69 67 62 58 53 48 44 40 37 36 37 38 39 37 39
89 90 91 88 86 75 68 66 83 82 76 88 75 76 55 58 65 66 65 73 75 67 65 56 51 45 62 72 70 67 66 64 59 51 45 40 39 39 41 44 45 42 44 38
95 93 86 72 66 64 55 37 47 56 58 67 77 48 51 40 42 51 64 74 71 71 66 65 49 54 56 56 64 69 65 59 54 50 45 43 43 45 50 51 50 41 34 34
93 88 82 71 68 74 43 46 46 45 46 54 50 46 61 47 39 35 42 62 74 69 64 51 51 59 58 54 54 69 65 58 54 50 45 42 38 39 45 42 40 40 39 40
86 81 74 76 77 50 53 72 68 68 71 86 86 88 92 92 77 27 33 37 59 64 58 55 61 62 56 56 56 73 66 59 56 52 40 34 35 43 46 45 43 40 41 40
94 92 92 93 92 83 64 65 65 65 81 83 76 81 90 94 83 51 47 37 37 58 55 58 60 59 58 64 77 77 67 60 57 50 35 30 35 34 33 34 34 36 37 40
90 91 92 97 94 72 66 76 77 77 89 82 83 79 76 92 84 52 60 47 33 55 58 59 59 61 59 59 82 81 71 63 58 47 29 25 28 28 30 33 33 32 32 39
90 90 86 91 90 78 78 85 93 87 85 81 73 79 69 88 79 69 58 46 39 41 62 66 62 63 63 70 88 84 74 67 62 48 29 24 24 28 30 31 32 30 26 25
91 90 93 89 78 78 89 90 92 96 92 80 67 78 83 87 86 64 50 49 59 68 66 66 67 66 69 84 97 86 78 74 69 59 40 28 24 27 30 31 31 29 27 27
86 88 95 87 81 78 87 90 90 85 79 73 78 78 76 77 93 76 70 79 76 73 71 72 71 76 96 98 96 92 90 87 84 80 68 46 30 26 29 30 31 31 31 31
66 60 56 49 52 48 45 44 41 34 47 75 95 90 73 73 80 94 76 78 77 74 86 98 100 96 97 97 98 98 97 93 90 89 91 85 63 38 29 28 29 30 31 32
53 60 66 69 77 80 61 40 45 36 29 30 79 87 90 80 74 97 98 85 73 73 73 96 98 98 98 99 98 98 98 98 97 96 92 89 88 84 68 48 34 30 30 30

GFSCGP_700_rhum_054.txt.gz
RH
99 98 94 94 84 67 66 73 87 93 86 97 92 98 66 76 72 65 63 65 69 77 88 66 64 68 75 73 70 61 58 53 46 47 45 43 42 41 41 40 40 37 32 26
98 98 98 96 96 88 88 75 73 94 97 97 98 81 67 64 66 59 62 69 70 66 79 65 61 59 59 56 53 48 46 44 41 39 35 33 32 33 32 29 27 27 28 30
97 98 98 93 91 82 81 73 75 73 92 86 91 89 68 58 56 46 50 57 65 64 70 74 58 52 51 50 47 45 44 44 44 44 42 38 36 33 31 32 34 33 32 30
98 98 100 93 90 80 78 75 84 83 73 62 75 41 62 54 41 31 43 54 55 66 63 73 65 60 57 52 52 49 47 46 42 39 37 34 34 33 33 32 31 29 24 18
97 99 98 96 92 82 83 56 79 75 65 75 79 68 40 47 32 45 34 44 42 61 71 73 66 63 60 54 52 50 49 47 40 38 35 34 34 35 35 32 29 24 19 16
97 98 99 99 80 66 73 84 85 84 74 70 61 65 45 54 55 36 29 33 43 76 78 70 65 62 60 56 54 50 49 46 40 36 38 40 37 34 33 29 24 22 19 15
98 99 96 96 87 71 73 70 82 78 82 60 69 72 49 52 47 50 46 39 38 68 81 82 73 63 50 47 44 43 42 42 42 40 38 37 36 32 27 24 20 16 14 13
98 98 97 92 97 89 80 58 57 62 62 50 69 66 48 37 38 36 40 43 36 34 54 54 74 83 61 51 51 45 49 50 48 48 46 44 40 35 32 27 22 17 14 13
95 99 99 95 93 87 98 87 68 68 68 62 51 59 39 32 34 34 34 33 33 34 38 40 55 58 57 75 59 49 53 55 53 51 47 41 36 32 27 23 19 16 17 17
98 99 97 92 97 84 79 84 72 72 74 53 45 48 30 41 41 41 37 35 32 28 26 27 33 40 45 43 47 46 49 54 55 54 46 38 33 28 24 20 19 18 19 18
88 89 99 94 91 92 88 89 79 71 70 51 38 30 36 42 40 42 37 39 35 31 32 28 25 28 29 28 30 44 54 57 56 46 42 36 31 27 24 22 21 20 19 18
85 98 100 99 88 89 91 84 78 66 75 73 64 40 39 41 43 40 36 35 32 42 34 31 26 22 26 31 38 54 57 56 49 42 34 30 28 26 23 22 21 22 23 24
87 96 97 98 96 91 93 82 74 79 72 81 62 48 46 40 37 37 43 43 40 42 47 40 36 32 38 47 57 60 56 46 39 35 32 30 30 31 33 31 30 31 31 31
89 87 81 65 73 79 83 90 80 79 84 68 68 63 55 49 42 42 56 53 52 53 52 51 46 45 45 46 45 44 42 41 42 49 53 49 48 47 44 39 36 34 33 34
91 86 80 70 72 78 76 76 75 80 66 81 69 64 64 70 72 53 58 60 66 63 57 61 56 49 49 50 49 45 51 58 59 57 57 57 51 45 43 40 37 36 37 37
92 90 87 88 82 79 75 71 71 74 70 91 76 72 63 65 68 63 55 54 63 64 60 64 62 57 49 50 47 60 66 67 64 62 60 55 50 44 40 39 38 42 45 46
96 90 80 80 70 63 56 49 46 47 46 63 88 68 75 47 42 38 31 32 48 58 61 64 67 59 60 49 62 64 64 69 66 62 56 51 47 44 41 40 49 53 53 52
89 95 82 70 65 63 48 49 48 50 54 62 68 80 86 92 82 54 65 39 32 44 60 60 62 63 58 54 60 58 54 63 69 62 55 52 47 44 40 39 45 46 45 40
88 86 77 85 74 61 76 71 68 75 94 87 83 82 77 69 60 54 70 65 37 32 54 62 61 64 52 58 61 57 54 62 72 62 56 53 45 36 40 44 47 47 46 43
94 86 87 82 83 63 66 69 71 70 83 81 79 76 71 63 54 42 59 52 47 33 38 61 61 51 49 51 56 58 60 78 74 62 59 52 37 33 43 43 46 46 47 49
95 90 97 97 86 75 77 88 86 85 88 80 81 78 74 75 84 76 65 57 58 40 37 62 56 55 56 60 62 65 71 83 75 66 61 44 29 31 35 37 37 39 40 45
97 95 92 95 87 76 81 89 93 88 85 82 82 84 72 79 82 87 67 56 62 60 43 62 60 60 63 65 65 63 81 86 78 69 61 38 26 27 31 35 36 34 34 40
98 90 99 92 95 83 86 90 92 94 88 84 81 76 68 63 73 78 75 67 60 57 45 49 65 69 67 69 67 67 78 89 92 84 64 44 29 25 27 32 35 37 30 26
96 94 90 82 76 78 84 91 93 90 84 80 77 70 61 67 71 71 81 82 76 75 73 69 69 71 71 70 68 67 90 96 96 86 80 79 44 29 26 29 31 31 30 29
69 67 65 57 52 52 58 70 71 55 53 47 40 32 33 81 77 78 73 81 81 81 78 76 74 80 82 78 76 89 100 98 97 97 97 96 90 66 33 28 29 30 31 32
48 50 62 65 70 67 62 63 59 43 48 52 48 32 29 72 92 86 78 87 92 78 78 80 87 96 98 98 98 98 99 98 99 98 97 97 97 96 88 59 35 30 30 31

GFSCGP_700_rhum_057.txt.gz
RH
98 98 93 73 69 53 49 43 57 68 93 95 69 82 94 89 88 77 78 58 66 74 76 82 77 73 72 70 71 66 56 51 49 46 42 38 38 39 41 41 41 41 41 41
98 98 83 74 69 64 46 48 66 90 90 94 96 98 94 88 82 74 76 71 72 71 76 76 78 73 72 74 68 70 60 54 51 46 47 48 46 45 43 43 41 40 34 29
89 94 98 84 83 72 60 48 52 78 89 93 87 90 76 85 82 79 60 59 64 68 74 80 77 71 71 75 76 73 70 62 58 55 53 46 43 38 34 31 29 29 30 32
90 98 97 91 78 69 59 58 67 70 79 68 76 45 55 68 74 50 56 52 57 62 75 83 68 70 67 66 66 65 58 50 46 43 42 41 42 40 38 37 35 34 33 33
82 98 98 87 78 70 65 70 72 68 64 44 64 58 38 50 56 60 70 57 72 54 70 84 92 70 68 66 56 53 51 47 48 48 45 42 39 37 34 34 35 35 33 31
87 97 98 82 81 80 69 72 72 68 55 57 56 51 36 35 49 50 53 58 63 65 50 78 79 69 70 70 59 64 57 50 50 49 49 43 41 40 43 44 37 34 31 28
99 99 98 92 91 78 75 68 65 65 75 58 56 47 40 44 44 49 46 50 45 65 61 57 61 77 74 71 64 59 55 54 54 59 53 46 44 44 42 38 36 33 29 25
98 98 98 91 82 78 78 56 51 53 52 44 59 54 41 47 43 37 37 41 42 37 38 62 75 75 72 65 64 61 58 63 66 71 54 45 42 43 45 44 42 37 33 29
93 98 100 93 92 83 75 62 67 62 53 46 46 45 44 41 34 28 28 29 34 36 41 43 61 79 74 71 72 69 63 60 57 56 53 50 50 49 48 45 38 33 29 25
94 95 99 87 86 89 84 80 63 70 66 41 37 34 29 39 44 43 37 35 33 30 30 35 41 44 58 56 67 75 78 75 65 60 58 56 54 53 50 42 32 27 24 22
98 82 100 98 98 87 92 89 79 67 63 52 30 27 36 46 50 46 39 37 36 35 32 29 26 28 30 38 45 52 71 73 79 78 66 61 54 50 43 33 30 27 24 22
93 97 94 97 92 91 88 73 70 60 68 55 54 41 36 47 42 42 41 38 35 31 31 35 31 29 28 31 36 40 54 71 74 68 63 62 56 46 39 31 26 23 22 21
95 95 98 96 93 84 92 85 81 68 67 73 55 40 45 42 40 40 39 46 62 39 30 37 39 33 30 28 29 30 35 43 56 68 67 59 48 36 31 30 29 30 31 31
89 90 84 70 70 74 84 83 88 80 82 64 59 52 52 52 44 50 59 67 64 52 45 44 47 39 43 45 40 39 48 56 60 56 45 37 34 33 33 34 36 38 38 37
87 92 79 80 66 76 89 81 82 91 79 73 59 59 57 59 64 73 78 79 72 55 53 52 50 52 45 46 47 49 49 46 44 41 40 42 47 49 50 47 46 42 39 38
82 84 84 81 76 75 75 81 89 91 90 88 80 77 78 82 85 85 76 51 44 42 45 58 61 60 60 54 45 47 48 46 46 51 59 61 58 55 54 50 46 41 38 38
91 90 85 88 77 73 65 66 78 86 87 87 78 72 75 89 85 56 52 57 52 43 35 42 61 60 61 58 54 50 47 47 58 65 64 63 61 56 52 48 44 42 39 43
94 98 89 87 64 67 60 51 52 56 75 86 87 96 94 86 71 62 71 74 70 58 46 35 56 67 64 62 54 50 45 56 59 53 58 66 62 55 52 49 43 38 38 45
96 96 89 84 64 57 69 74 76 84 100 82 82 82 79 74 65 67 100 79 66 57 54 41 39 63 68 63 58 62 48 60 58 54 54 69 63 56 53 47 36 35 43 47
83 86 81 78 66 52 82 68 64 69 78 85 78 76 72 66 63 56 63 70 65 59 55 47 39 53 68 63 64 66 53 57 54 54 63 72 64 59 52 37 35 42 49 50
95 96 94 88 76 67 73 71 80 86 80 89 78 69 67 70 70 62 71 73 72 59 66 55 42 58 69 63 58 54 59 58 60 66 79 76 65 58 40 29 36 38 46 50
92 89 86 80 85 72 75 82 90 89 81 74 70 69 64 60 60 56 58 69 74 57 53 61 49 65 64 55 57 61 62 62 59 67 84 77 66 51 30 30 36 35 42 45
91 78 84 91 92 79 75 79 77 74 68 62 57 63 66 51 41 40 44 63 76 75 66 59 52 64 66 62 64 67 70 67 63 68 84 86 78 65 30 28 39 58 36 35
84 84 95 77 78 72 72 70 64 50 43 42 46 40 38 38 27 24 27 64 69 80 77 76 72 64 68 69 70 70 71 69 66 68 84 98 95 43 53 63 31 37 36 36
83 70 68 68 70 56 48 55 62 59 56 55 47 38 47 46 36 20 24 55 73 78 79 78 79 79 77 76 75 73 72 72 75 84 99 99 85 93 94 73 54 45 36 32
40 48 46 61 68 70 71 69 70 69 65 61 52 46 51 50 48 42 23 55 82 80 91 80 76 79 91 90 98 98 98 99 97 100 98 100 98 97 95 94 78 54 31 31

GFSCGP_700_rhum_060.txt.gz
RH
99 94 90 77 72 70 72 65 67 66 90 92 91 57 84 84 79 67 68 62 62 61 72 68 72 73 65 64 58 59 59 61 58 55 51 48 48 47 40 34 36 38 39 40
98 94 78 90 80 65 60 64 81 81 97 83 92 86 82 69 76 73 65 74 63 64 62 72 64 75 79 71 67 65 65 66 59 53 52 50 47 43 43 43 41 42 42 40
98 97 98 92 79 92 80 58 86 74 77 95 97 95 84 64 65 63 79 74 78 60 64 74 72 63 75 74 70 70 69 70 62 55 52 48 45 47 51 56 46 38 33 30
98 91 89 86 93 70 53 46 61 62 70 82 68 60 50 48 48 47 78 79 74 76 73 70 72 65 61 73 69 72 71 71 69 60 55 57 61 59 58 52 39 38 36 34
90 85 91 79 69 65 57 63 95 71 74 65 76 68 43 51 54 40 67 61 64 65 69 71 72 73 62 65 73 72 76 78 75 73 65 61 58 48 43 42 41 38 36 36
95 98 100 96 76 86 65 70 74 66 62 69 55 58 45 50 45 50 60 62 56 40 50 62 72 81 74 62 64 71 69 68 65 56 48 49 50 48 48 43 41 40 41 41
80 98 100 88 77 64 59 64 74 82 79 81 52 53 45 46 46 40 37 53 55 61 63 53 85 81 86 77 68 72 72 67 56 54 61 70 62 64 60 48 45 44 41 38
97 98 96 92 82 70 70 54 62 67 81 66 52 52 47 43 44 44 47 43 42 49 60 62 46 55 68 66 85 74 75 69 61 64 72 76 64 64 66 57 51 45 45 44
97 99 98 99 85 77 74 69 67 60 49 60 53 44 45 45 38 35 34 32 34 38 39 43 53 41 36 69 82 73 76 75 63 61 63 61 64 70 76 68 56 49 47 46
81 95 96 91 83 70 72 73 67 59 69 46 44 39 38 42 46 44 38 36 34 34 31 32 38 40 35 68 81 74 69 80 78 75 65 63 64 62 57 54 55 54 51 44
81 84 98 89 87 84 83 79 67 61 59 84 55 41 38 42 46 44 39 38 37 37 36 37 34 33 37 40 58 80 77 70 57 73 93 90 80 73 70 65 60 56 50 36
86 91 99 97 98 97 89 82 69 67 65 56 53 45 42 42 43 46 44 42 50 36 34 36 32 34 34 30 29 30 41 69 64 76 82 84 74 82 85 84 71 51 42 31
97 92 96 98 95 93 91 84 81 71 65 71 70 49 46 47 46 43 43 51 64 61 40 28 36 31 32 33 30 29 30 35 39 61 81 83 86 81 73 65 52 37 31 28
93 81 85 80 75 67 68 74 79 77 76 69 63 48 49 51 54 64 66 66 65 63 51 44 35 34 34 40 37 30 30 32 37 42 56 67 74 75 63 42 37 36 38 34
90 91 86 85 78 80 80 76 72 82 65 78 63 60 58 61 65 68 65 61 58 52 48 49 48 45 43 48 43 43 43 45 47 52 57 60 53 43 41 45 48 48 50 46
86 87 82 77 72 72 72 85 83 79 82 81 80 70 76 76 72 63 58 56 50 46 43 41 36 38 40 57 55 49 47 48 49 49 48 47 48 56 61 58 55 54 52 47
89 81 77 83 77 70 67 66 68 76 84 89 95 85 78 75 72 66 54 65 55 60 59 47 44 33 35 57 61 58 53 50 52 51 48 54 66 66 63 60 57 54 49 47
96 90 82 82 60 83 64 56 54 72 81 78 79 80 65 60 55 63 68 71 84 67 54 52 53 47 34 51 66 64 61 56 50 47 50 65 56 52 58 63 59 55 51 46
94 90 92 91 72 64 67 61 70 84 93 73 67 65 70 74 73 72 84 96 83 65 61 55 51 55 42 37 58 68 68 65 63 56 57 61 55 51 56 65 60 55 49 37
82 87 86 77 70 62 82 73 64 66 88 77 86 82 75 68 64 57 58 57 58 59 68 61 57 61 55 48 39 65 73 70 68 68 62 61 54 54 64 68 60 54 37 32
83 87 85 85 78 71 73 74 72 82 79 91 96 91 81 66 63 55 51 55 58 56 64 70 55 62 55 45 50 71 75 72 72 65 66 60 60 64 77 70 59 38 30 37
80 81 85 86 93 81 74 77 83 89 98 86 74 69 61 48 42 42 36 32 32 37 55 75 68 57 60 58 74 69 64 67 66 66 63 61 59 65 80 71 49 30 34 39
87 79 82 84 92 89 87 83 83 80 74 71 58 47 45 49 47 39 38 35 21 27 54 72 78 74 63 69 72 62 65 67 68 68 68 65 64 66 80 85 46 37 38 54
72 69 76 68 79 80 83 80 69 61 52 52 60 56 55 55 41 43 43 44 28 31 64 68 81 82 79 71 75 76 74 73 73 73 73 71 71 76 88 100 97 61 37 62
61 60 58 70 78 71 61 62 64 66 68 70 71 69 65 58 51 51 53 52 49 29 69 76 86 84 83 84 80 78 79 80 81 80 77 78 80 85 99 98 51 44 67 39
44 44 47 48 51 65 67 64 62 64 66 62 60 61 63 63 61 62 59 60 61 44 57 89 89 100 89 88 96 93 91 99 95 86 100 100 97 91 99 100 98 96 89 92

GFSCGP_700_rhum_063.txt.gz
RH
90 96 96 98 81 73 73 79 65 74 85 96 96 89 72 56 54 58 57 55 64 51 60 59 73 78 72 63 66 64 58 57 54 49 46 47 48 52 51 43 46 47 35 38
83 90 96 98 98 84 67 68 62 67 91 98 99 89 69 73 56 60 57 50 57 58 63 64 55 66 72 72 72 69 62 64 60 60 59 56 55 52 52 55 49 40 40 43
79 71 98 92 92 86 91 74 60 58 72 95 92 89 72 70 66 60 63 56 55 60 59 62 56 49 60 69 74 69 71 67 64 62 63 57 54 54 56 49 44 44 47 47
97 90 88 81 76 78 80 72 68 76 96 91 90 78 54 43 53 66 61 52 53 76 72 61 63 60 55 60 64 69 63 68 71 67 68 60 57 60 58 53 52 57 52 39
99 89 99 99 80 87 65 64 63 76 70 69 72 85 41 48 51 53 52 62 67 61 75 63 62 64 64 66 65 60 68 71 72 77 78 75 75 73 63 63 61 57 50 43
100 93 98 97 92 89 76 73 98 98 90 73 72 76 42 45 46 40 50 58 54 47 60 70 64 69 71 73 67 62 63 73 68 71 77 83 78 78 79 65 55 52 51 44
97 98 94 92 96 86 88 71 98 96 78 77 61 61 51 50 50 47 49 60 57 63 66 53 57 67 68 70 69 71 63 65 73 75 74 78 77 71 66 61 59 64 63 51
97 98 90 76 73 71 71 58 62 85 93 73 55 53 46 48 46 45 44 41 54 56 60 62 52 50 65 74 81 79 73 78 72 79 76 66 55 57 64 68 73 76 90 85
96 97 91 82 70 61 67 68 60 55 55 63 52 46 51 48 45 44 42 37 34 43 58 61 62 63 58 61 65 73 64 81 83 78 76 62 59 65 75 84 87 72 73 73
92 98 92 85 78 67 71 72 65 59 63 58 59 47 43 50 42 33 31 31 30 32 36 40 46 47 50 44 49 48 71 85 70 76 83 86 82 74 68 76 74 65 63 59
83 92 99 88 79 78 76 71 62 60 63 84 58 45 45 46 38 39 38 40 41 41 40 39 38 39 38 37 40 47 68 83 72 69 78 92 88 82 86 77 70 69 65 68
71 86 92 97 82 73 75 73 70 62 61 57 54 48 46 41 41 43 43 52 58 57 42 37 39 36 33 32 34 32 38 74 84 76 76 80 81 75 70 88 90 80 89 80
81 83 98 91 92 80 77 76 71 67 65 66 58 49 50 48 52 50 52 63 70 63 46 38 39 36 35 33 30 29 32 30 30 41 51 64 80 75 80 85 92 84 82 72
82 84 78 78 83 73 83 76 80 77 73 65 63 53 56 59 62 65 69 72 72 74 70 61 48 38 33 32 30 27 29 34 31 29 34 39 45 72 85 87 88 68 70 54
76 86 86 84 84 72 66 68 70 77 64 68 46 58 65 66 69 74 72 67 68 66 62 56 48 44 42 43 42 48 49 42 39 37 35 38 42 49 64 68 66 51 44 51
84 82 81 78 76 69 72 77 72 72 77 76 70 63 65 64 71 78 71 65 59 52 44 40 38 39 37 35 35 48 59 50 45 44 47 52 56 61 54 48 48 54 59 59
80 76 84 84 84 77 72 69 81 79 82 81 82 84 87 83 76 68 70 66 48 49 49 50 46 44 46 38 26 32 64 61 53 49 49 50 51 51 52 63 67 61 60 60
90 82 76 84 71 75 65 64 64 71 83 91 89 86 81 76 74 66 56 65 73 81 76 62 51 44 44 46 43 29 60 65 63 59 53 52 51 53 68 60 52 50 55 63
92 90 85 81 74 71 64 56 52 55 72 82 79 72 67 64 66 71 70 81 88 74 64 59 55 53 47 48 53 46 44 70 68 67 67 65 61 57 63 59 52 50 62 65
90 88 84 77 73 71 69 76 68 74 77 84 87 88 85 81 74 66 65 63 61 59 57 48 48 61 53 53 59 52 44 52 77 74 74 75 73 64 64 58 58 71 74 66
84 84 87 86 85 83 83 82 76 85 79 87 98 98 96 89 78 66 53 41 42 38 33 32 37 51 61 48 60 50 46 51 80 85 80 79 77 69 65 61 66 80 78 64
75 75 82 90 90 93 80 83 86 84 87 93 94 88 77 66 51 46 46 47 40 40 35 24 26 52 68 59 56 56 61 73 74 71 72 76 71 71 66 63 65 78 78 64
86 81 85 78 87 88 87 86 82 79 79 71 63 52 49 51 52 45 43 39 39 40 44 30 30 58 76 72 67 67 73 68 69 70 70 71 73 71 70 69 74 83 87 77
74 72 78 75 85 77 66 75 71 59 59 65 66 63 63 60 59 56 52 50 48 48 49 44 34 72 77 81 81 74 79 74 69 71 74 77 76 77 76 76 81 90 95 99
62 60 58 66 68 68 62 55 66 60 59 66 62 51 47 50 58 62 63 63 59 53 53 56 39 64 82 91 85 89 89 85 82 80 80 81 84 83 82 83 92 87 100 92
49 50 50 51 44 49 61 68 67 47 40 36 30 19 16 16 17 23 35 54 64 64 58 54 58 47 88 98 100 92 100 100 99 99 100 95 89 91 100 100 100 100 100 69

GFSCGP_700_rhum_066.txt.gz
RH
99 97 82 75 100 98 90 94 95 99 94 94 99 100 97 84 71 65 63 61 61 53 56 57 67 64 62 64 70 74 80 64 62 61 58 57 53 53 46 46 48 52 44 44
90 98 86 89 99 74 83 78 92 99 95 97 96 88 79 71 64 63 58 55 58 62 60 53 55 69 68 66 64 67 74 69 59 55 57 55 57 57 53 53 54 47 44 50
93 83 94 98 100 90 88 71 64 64 70 90 97 96 78 70 63 50 49 50 56 55 54 54 50 57 64 70 69 70 67 70 67 68 73 68 66 60 58 53 50 48 53 48
93 82 91 97 86 77 77 73 68 60 68 71 75 84 63 57 52 48 48 48 53 52 47 53 59 54 55 57 58 65 66 68 70 70 76 76 74 77 74 73 70 60 59 56
100 69 79 88 90 86 76 80 72 72 81 86 82 95 52 54 52 44 51 54 55 56 49 55 58 59 61 66 66 63 65 69 71 75 72 75 76 87 92 90 77 80 75 79
95 78 82 87 80 76 73 80 87 97 97 98 79 93 46 51 45 46 50 54 57 57 62 70 72 67 64 65 66 68 73 65 64 69 74 72 84 76 80 83 88 93 90 89
99 89 98 98 81 90 90 88 98 97 98 84 76 86 52 51 53 48 49 54 56 61 61 68 74 77 72 66 66 71 73 72 70 66 70 75 84 83 92 95 98 89 90 93
98 99 98 98 96 94 99 76 85 88 89 71 74 69 50 50 48 47 46 45 46 55 60 61 63 57 68 71 74 74 74 74 78 82 79 75 76 85 85 91 88 94 70 66
95 98 97 87 87 88 91 74 64 66 66 63 55 52 52 50 46 48 48 47 46 48 54 55 54 59 55 60 70 75 79 85 88 85 75 83 82 86 83 74 72 73 74 82
92 97 87 78 81 76 70 64 61 52 71 65 62 52 52 50 48 42 33 36 41 40 38 42 52 58 55 53 58 61 63 65 63 61 77 78 72 70 75 74 74 84 91 94
73 76 87 72 78 76 70 62 58 55 64 76 63 46 46 45 48 40 36 38 42 44 43 42 40 38 40 41 45 44 44 46 52 77 86 75 74 90 98 96 89 86 86 73
69 73 96 82 75 72 69 65 58 54 60 60 53 51 40 49 47 49 49 50 49 43 40 39 39 42 41 42 40 35 33 33 38 58 84 83 82 83 85 83 88 85 82 87
66 77 86 81 76 68 65 63 62 60 58 53 56 55 54 57 58 58 61 54 52 46 43 40 38 35 36 38 36 33 30 28 31 32 47 81 82 80 84 85 86 89 91 88
72 74 71 71 70 67 72 64 68 68 67 64 58 56 61 60 58 57 59 61 68 72 68 61 54 49 42 38 36 30 29 28 28 30 33 33 41 56 62 57 74 85 92 91
70 79 80 86 76 75 71 64 71 66 63 64 58 55 57 66 66 63 63 67 67 67 65 64 62 58 52 39 37 39 41 38 37 40 38 38 35 39 44 46 60 76 78 73
75 84 84 84 83 80 74 71 74 77 77 75 72 67 65 63 64 65 71 73 73 72 66 57 41 39 40 37 37 38 36 40 42 50 45 43 43 43 47 58 70 68 54 52
80 79 84 80 79 72 69 69 81 79 78 79 80 77 77 77 81 88 87 77 75 66 51 40 41 42 42 41 38 32 32 34 35 52 52 50 52 54 56 54 53 54 62 61
79 71 73 81 77 79 66 64 68 84 87 87 86 86 88 92 92 87 79 69 59 57 56 50 48 46 46 44 45 36 33 44 38 62 60 58 55 56 56 54 53 67 61 53
79 79 80 76 66 70 66 60 58 68 79 84 86 88 87 85 78 72 72 69 66 64 61 58 54 50 46 44 49 49 38 43 48 56 68 64 66 66 63 61 58 63 62 56
87 87 83 88 77 80 66 67 65 61 66 56 66 73 72 73 78 76 78 77 75 65 48 38 44 42 36 39 42 55 47 51 55 52 74 72 74 76 74 73 67 64 64 60
100 94 84 80 74 70 60 73 78 79 59 61 63 70 75 77 76 71 67 61 52 46 37 35 30 29 25 25 33 59 47 56 57 65 82 83 80 79 80 78 73 68 62 60
72 75 82 86 87 85 73 79 82 74 73 72 78 79 74 67 57 49 45 43 42 40 41 37 34 33 32 23 38 66 54 55 53 60 66 82 88 85 83 82 74 70 66 65
76 70 75 72 70 69 71 76 82 82 75 64 57 54 58 58 56 54 54 55 55 52 49 49 44 43 40 31 54 71 70 60 72 75 74 73 72 74 81 79 79 73 72 71
78 77 80 72 66 72 78 78 73 61 52 59 58 59 55 46 40 39 42 48 54 56 56 54 51 50 50 38 63 75 80 76 76 76 75 79 79 78 80 84 83 80 79 79
70 69 69 71 61 57 60 66 54 64 59 51 45 37 28 18 13 12 12 12 12 16 30 52 57 55 53 51 56 82 87 88 85 80 81 77 78 81 85 84 84 86 86 82
60 66 67 65 60 58 50 52 67 73 72 50 34 23 15 14 17 20 22 22 20 19 17 13 15 43 62 57 54 65 100 100 99 100 95 94 98 96 94 94 93 92 95 99